[[{"header":{"parameterUnit":"m.s-1","parameterCategory":1,"la1":30.2991,"la2":30.254,"lo1":-89.0895,"lo2":-89.0444,"dy":0.0017,"dx":0.0017,"nx":28,"ny":28,"refTime":"2024-04-18T03:00:00:Z","depth":0,"parameterNumber":2,"parameterNumberName":"U-component_of_WINDS"},"data":[0,0,0,0,0,0,0,0,0,0,0,0,0,0,0,0,0,0,0,0,0,0,0,0,0,0,0,0,0,0,0,0,0,0,0,0,0,0,0,0,0,0,0,0,0,0,0,0,0,0,0,0,0,0,0,0,0,0,-0.3426,-0.3426,0,-0.343,-0.343,-0.343,-0.3434,-0.3434,-0.3434,-0.3434,-0.3438,-0.3438,-0.3438,0,0,0,0,0,0,0,0,0,0,0,0,0,-0.3422,-0.3422,-0.3426,-0.3426,-0.3426,-0.343,-0.343,-0.343,-0.3434,-0.3434,-0.3434,-0.3434,-0.3438,-0.3438,-0.3438,0,0,0,0,0,0,0,0,0,0,0,0,0,-0.3424,-0.3422,-0.3426,-0.3428,-0.3429,-0.343,-0.343,-0.343,-0.3434,-0.3434,-0.3434,-0.3434,-0.3438,-0.3438,-0.3438,-0.3437,0,0,-0.3438,-0.3438,0,0,0,0,0,0,0,0,-0.3424,-0.3425,-0.3428,-0.3428,-0.3429,-0.3431,-0.343,-0.3432,-0.3434,-0.3432,-0.3434,-0.3434,-0.3435,-0.3436,-0.3436,-0.3437,-0.3437,-0.3438,-0.3438,-0.3438,-0.3438,0,0,0,0,0,0,0,-0.3424,-0.3424,-0.3428,-0.3428,-0.3428,-0.3429,-0.343,-0.343,-0.3433,-0.3432,-0.3432,-0.3433,-0.3436,-0.3436,-0.3436,-0.3437,-0.3438,-0.3438,-0.3438,-0.3438,-0.3437,-0.3437,0,0,0,0,0,0,-0.3424,-0.3424,-0.3427,-0.3428,-0.3427,-0.3429,-0.343,-0.343,-0.3433,-0.3434,-0.3433,-0.3433,-0.3436,-0.3436,-0.3437,-0.3435,-0.3438,-0.3438,-0.3438,-0.3437,-0.3437,-0.3437,0,0,0,0,0,0,-0.3423,-0.3424,-0.3427,-0.3426,-0.3427,-0.3429,-0.343,-0.343,-0.3431,-0.3434,-0.3434,-0.3433,-0.3436,-0.3436,-0.3437,-0.3436,-0.3438,-0.3438,-0.3437,-0.3437,-0.3437,-0.3433,0,0,0,0,0,0,-0.3423,-0.3424,-0.3424,-0.3426,-0.3427,-0.3427,-0.343,-0.343,-0.3431,-0.3431,-0.3434,-0.3434,-0.3436,-0.3436,-0.3437,-0.3436,-0.3438,-0.3437,-0.3437,-0.3437,-0.3433,-0.3433,-0.3432,0,0,0,0,0,-0.3423,-0.3422,-0.3423,-0.3424,-0.3426,-0.3427,-0.3428,-0.343,-0.3431,-0.3431,-0.3432,-0.3434,-0.3436,-0.3436,-0.3437,-0.3436,-0.3437,-0.3437,-0.3437,-0.3433,-0.3433,-0.3432,0,0,0,0,0,0,-0.342,-0.3423,-0.3424,-0.3424,-0.3425,-0.3428,-0.3428,-0.3429,-0.343,-0.3431,-0.3433,-0.3434,-0.3433,-0.3435,-0.3436,-0.3435,-0.3437,-0.3436,-0.3434,-0.3433,-0.3433,-0.3433,-0.3438,0,0,0,0,0,-0.3419,-0.342,-0.3422,-0.3422,-0.3423,-0.3425,-0.3425,-0.3427,-0.3429,-0.3429,-0.3431,-0.3432,-0.3433,-0.3433,-0.3434,-0.3433,-0.3434,-0.3433,-0.3432,-0.3432,-0.3432,-0.3431,-0.3431,-0.3436,-0.3436,-0.3436,0,0,-0.3417,-0.3419,-0.3419,-0.3421,-0.3423,-0.3423,-0.3425,-0.3426,-0.3426,-0.3429,-0.3429,-0.3431,-0.3432,-0.3432,-0.3432,-0.3433,-0.3431,-0.3432,-0.3432,-0.3432,-0.3431,-0.3431,-0.343,-0.3436,-0.3436,-0.3436,0,0,-0.3415,-0.3416,-0.3416,-0.3417,-0.3419,-0.3421,-0.3421,-0.3423,-0.3424,-0.3424,-0.3426,-0.3426,-0.3428,-0.3429,-0.3429,-0.3427,-0.3428,-0.3427,-0.3425,-0.3424,-0.3424,-0.3423,-0.3422,-0.3422,-0.3427,-0.3427,-0.3427,0,-0.3413,-0.3414,-0.3416,-0.3416,-0.3417,-0.3419,-0.3419,-0.342,-0.3422,-0.3422,-0.3423,-0.3425,-0.3426,-0.3426,-0.3425,-0.3426,-0.3426,-0.3427,-0.3423,-0.3423,-0.3423,-0.3422,-0.3421,-0.3426,-0.3426,-0.3426,-0.3427,0,-0.3411,-0.3411,-0.3411,-0.3413,-0.3413,-0.3413,-0.3415,-0.3416,-0.3417,-0.3418,-0.3418,-0.342,-0.3421,-0.3421,-0.3423,-0.3421,-0.3421,-0.3423,-0.3425,-0.3422,-0.3421,-0.3421,-0.3426,-0.3426,-0.3426,-0.3426,0,0,-0.3406,-0.3409,-0.3409,-0.341,-0.3412,-0.3412,-0.3412,-0.3413,-0.3413,-0.3414,-0.3414,-0.3415,-0.3416,-0.3417,-0.3418,-0.3418,-0.3415,-0.3419,-0.3419,-0.3418,-0.3413,-0.3412,-0.3411,-0.3416,-0.3416,-0.3416,-0.3413,0,-0.3404,-0.3404,-0.3406,-0.3406,-0.3406,-0.3408,-0.3408,-0.3409,-0.341,-0.3411,-0.3412,-0.3412,-0.3414,-0.3415,-0.3414,-0.3415,-0.3414,-0.3416,-0.3416,-0.3416,-0.3415,-0.3411,-0.341,-0.3407,-0.3413,-0.3412,-0.3412,0,-0.3401,-0.3402,-0.3402,-0.3403,-0.3403,-0.3403,-0.3404,-0.3405,-0.3406,-0.3407,-0.3407,-0.3409,-0.3409,-0.341,-0.341,-0.3411,-0.3411,-0.3412,-0.3412,-0.3412,-0.3414,-0.3411,-0.3406,-0.3405,-0.3412,-0.3412,-0.3412,0,-0.3398,-0.3399,-0.3399,-0.3399,-0.3401,-0.3401,-0.3402,-0.3403,-0.3403,-0.3404,-0.3404,-0.3405,-0.3405,-0.3406,-0.3407,-0.3408,-0.3407,-0.3409,-0.3407,-0.3407,-0.3407,-0.3407,-0.3401,-0.3407,-0.3407,-0.3407,-0.3407,0,-0.3395,-0.3395,-0.3397,-0.3397,-0.3396,-0.3398,-0.3398,-0.3399,-0.34,-0.34,-0.3402,-0.3402,-0.3404,-0.3404,-0.3405,-0.3405,-0.3405,-0.3405,-0.3406,-0.3405,-0.3405,-0.3405,-0.3405,-0.3407,-0.3407,-0.3407,-0.3407,0,-0.3391,-0.3393,-0.3393,-0.3394,-0.3395,-0.3394,-0.3396,-0.3396,-0.3397,-0.3397,-0.3397,-0.3398,-0.3399,-0.34,-0.3401,-0.3402,-0.34,-0.3401,-0.34,-0.34,-0.3398,-0.3398,-0.3393,-0.3392,-0.3398,-0.3398,-0.3398,0,-0.3389,-0.3389,-0.339,-0.3391,-0.3391,-0.3391,-0.3392,-0.3393,-0.3394,-0.3395,-0.3394,-0.3394,-0.3395,-0.3395,-0.3396,-0.3396,-0.3397,-0.3395,-0.3397,-0.3396,-0.3397,-0.3397,-0.3397,-0.3395,-0.3395,-0.3395,-0.3395,0,-0.3385,-0.3386,-0.3386,-0.3387,-0.3387,-0.3388,-0.3388,-0.3388,-0.339,-0.339,-0.339,-0.339,-0.3391,-0.3391,-0.3391,-0.3392,-0.3394,-0.3394,-0.3394,-0.3393,-0.3392,-0.3392,-0.3399,-0.3394,-0.3394,-0.3394,-0.3394,-0.3394,-0.3382,-0.3382,-0.3383,-0.3383,-0.3384,-0.3384,-0.3384,-0.3385,-0.3385,-0.3385,-0.3386,-0.3386,-0.3387,-0.3388,-0.3388,-0.3388,-0.3389,-0.3388,-0.3388,-0.3388,-0.3388,-0.3392,-0.3388,-0.3388,-0.3388,-0.3388,-0.3388,0,-0.3378,-0.3379,-0.3379,-0.338,-0.338,-0.3381,-0.3382,-0.3382,-0.3381,-0.3382,-0.3382,-0.3382,-0.3382,-0.3383,-0.3383,-0.3383,-0.3383,-0.3383,-0.3383,-0.3383,-0.3387,-0.3387,-0.3382,-0.3382,-0.3382,-0.3382,-0.3382,-0.3382,-0.3376,-0.3376,-0.3377,-0.3376,-0.3377,-0.3377,-0.3377,-0.3377,-0.3377,-0.3377,-0.3377,-0.3378,-0.3378,-0.3379,-0.3379,-0.3379,-0.3379,-0.3378,-0.3378,-0.3382,-0.3383,-0.3383,-0.3383,-0.3378,-0.3378,-0.3374,-0.3374,-0.3374]},{"header":{"parameterUnit":"m.s-1","parameterCategory":1,"la1":30.2991,"la2":30.254,"lo1":-89.0895,"lo2":-89.0444,"dy":0.0017,"dx":0.0017,"nx":28,"ny":28,"refTime":"2024-04-18T03:00:00:Z","depth":0,"parameterNumber":3,"parameterNumberName":"V-component_of_WINDS"},"data":[0,0,0,0,0,0,0,0,0,0,0,0,0,0,0,0,0,0,0,0,0,0,0,0,0,0,0,0,0,0,0,0,0,0,0,0,0,0,0,0,0,0,0,0,0,0,0,0,0,0,0,0,0,0,0,0,0,0,0.3447,0.3448,0,0.3512,0.3513,0.3514,0.3538,0.3538,0.3538,0.3538,0.3601,0.3603,0.3605,0,0,0,0,0,0,0,0,0,0,0,0,0,0.3342,0.3343,0.3447,0.3448,0.3449,0.3512,0.3513,0.3514,0.3538,0.3538,0.3538,0.3538,0.36,0.3603,0.3605,0,0,0,0,0,0,0,0,0,0,0,0,0,0.3395,0.3344,0.3447,0.3469,0.3471,0.3512,0.3513,0.3514,0.3538,0.3538,0.3538,0.3537,0.36,0.3602,0.3605,0.3628,0,0,0.3614,0.3615,0,0,0,0,0,0,0,0,0.3392,0.3399,0.3465,0.3467,0.347,0.3517,0.3499,0.3552,0.3538,0.3513,0.3538,0.3537,0.3573,0.3578,0.3591,0.3631,0.3634,0.3614,0.3616,0.3617,0.3618,0,0,0,0,0,0,0,0.3388,0.3396,0.3473,0.3466,0.3469,0.3474,0.3482,0.3509,0.3544,0.3515,0.3517,0.3524,0.3575,0.3588,0.3592,0.3635,0.3614,0.3616,0.3618,0.3619,0.3699,0.3699,0,0,0,0,0,0,0.3381,0.3393,0.3471,0.3475,0.343,0.3476,0.3485,0.3502,0.3543,0.355,0.3525,0.3525,0.3583,0.3589,0.3595,0.3625,0.3617,0.362,0.3621,0.3698,0.3699,0.3699,0,0,0,0,0,0,0.3379,0.3388,0.3468,0.3435,0.3445,0.3479,0.3498,0.3504,0.3517,0.3551,0.3557,0.3532,0.3583,0.3591,0.362,0.3628,0.3621,0.3623,0.3698,0.3698,0.3699,0.3686,0,0,0,0,0,0,0.3376,0.3387,0.3397,0.3435,0.3447,0.3493,0.3499,0.3505,0.3522,0.3524,0.356,0.3565,0.3584,0.3616,0.3623,0.3632,0.3626,0.3697,0.3698,0.3699,0.3686,0.3686,0.3686,0,0,0,0,0,0.3372,0.339,0.3397,0.3406,0.346,0.3494,0.3501,0.3523,0.3523,0.3533,0.3554,0.3564,0.3626,0.3619,0.3627,0.3636,0.3697,0.3698,0.3699,0.3686,0.3686,0.3686,0,0,0,0,0,0,0.335,0.3395,0.3404,0.3434,0.346,0.3498,0.3511,0.3522,0.3547,0.3548,0.3573,0.3581,0.3608,0.3625,0.3616,0.3661,0.3662,0.3665,0.3649,0.365,0.365,0.3646,0.3628,0,0,0,0,0,0.3349,0.3374,0.3411,0.3435,0.3447,0.3477,0.3492,0.3507,0.3534,0.3545,0.3569,0.3594,0.362,0.3636,0.3661,0.3688,0.3697,0.3699,0.3699,0.3699,0.3701,0.3718,0.372,0.3702,0.3702,0.3702,0,0,0.3347,0.3375,0.3388,0.3431,0.3453,0.3477,0.3486,0.3511,0.3529,0.3549,0.3579,0.3597,0.3627,0.3656,0.367,0.3671,0.3708,0.3701,0.37,0.3702,0.3719,0.3721,0.3722,0.3703,0.3703,0.3703,0,0,0.3356,0.3379,0.3402,0.3424,0.3457,0.3477,0.3482,0.3518,0.3532,0.3562,0.3578,0.3599,0.3642,0.3663,0.3679,0.3697,0.3707,0.3704,0.3705,0.3721,0.3723,0.3724,0.3731,0.3733,0.3706,0.3706,0.3706,0,0.3349,0.3387,0.3411,0.3437,0.3455,0.3475,0.3498,0.3517,0.3557,0.3569,0.357,0.3625,0.3646,0.3681,0.3685,0.3697,0.3704,0.37,0.3721,0.3722,0.3724,0.3731,0.3733,0.3705,0.3706,0.3706,0.3706,0,0.3377,0.3403,0.3417,0.3457,0.3476,0.35,0.3527,0.3544,0.3557,0.3577,0.3608,0.3634,0.3666,0.3675,0.3687,0.3711,0.3711,0.3716,0.3717,0.3725,0.3732,0.3734,0.3705,0.3705,0.3705,0.3705,0,0,0.3374,0.3427,0.3432,0.345,0.3489,0.3509,0.3534,0.3565,0.358,0.3606,0.3627,0.3664,0.3669,0.3687,0.3702,0.3716,0.3729,0.372,0.3721,0.3721,0.3758,0.3755,0.3757,0.3736,0.3737,0.3737,0.3756,0,0.3388,0.3434,0.3457,0.3493,0.3518,0.3537,0.3559,0.3584,0.3603,0.3626,0.3647,0.3672,0.3677,0.3688,0.3703,0.3725,0.3737,0.3724,0.3756,0.3757,0.3748,0.3761,0.3757,0.3773,0.3759,0.3759,0.3759,0,0.3411,0.3439,0.3477,0.3514,0.3526,0.3545,0.3576,0.3598,0.3627,0.364,0.3661,0.3676,0.3702,0.3701,0.3738,0.3728,0.3742,0.3755,0.3756,0.376,0.3759,0.3766,0.3779,0.3782,0.3764,0.3763,0.3763,0,0.3405,0.3452,0.3482,0.3497,0.354,0.3554,0.3572,0.3601,0.3619,0.3646,0.3658,0.3687,0.3703,0.3725,0.3748,0.3745,0.3782,0.3783,0.3793,0.3792,0.38,0.3799,0.3816,0.3809,0.3809,0.3808,0.3808,0,0.3419,0.3442,0.348,0.3499,0.3525,0.3551,0.3576,0.3596,0.3622,0.3644,0.3662,0.3682,0.371,0.3734,0.3751,0.3779,0.3785,0.3796,0.3801,0.3795,0.3794,0.3805,0.3805,0.3809,0.3809,0.3809,0.3809,0,0.3417,0.3444,0.3478,0.3517,0.3527,0.3545,0.3578,0.3596,0.3616,0.3643,0.3651,0.3682,0.3711,0.3736,0.3773,0.3784,0.3813,0.3818,0.3804,0.3806,0.3815,0.3814,0.3841,0.3846,0.3834,0.3834,0.3834,0,0.3425,0.3443,0.3485,0.3502,0.352,0.3546,0.3565,0.3591,0.361,0.3646,0.3659,0.369,0.3715,0.376,0.3785,0.3814,0.382,0.3827,0.3825,0.3819,0.3821,0.382,0.3822,0.3828,0.3828,0.3828,0.3828,0,0.3435,0.3448,0.3475,0.3507,0.3529,0.3555,0.3582,0.3594,0.3625,0.3645,0.3675,0.3695,0.3734,0.3764,0.3796,0.3814,0.3826,0.3828,0.3832,0.3827,0.3818,0.3824,0.3805,0.3828,0.3828,0.3828,0.3828,0.3828,0.3439,0.3457,0.3489,0.3519,0.3542,0.3566,0.3586,0.3609,0.3635,0.3669,0.3683,0.3714,0.3743,0.3787,0.3805,0.383,0.3831,0.3837,0.3839,0.384,0.3839,0.3814,0.3835,0.3835,0.3835,0.3835,0.3835,0,0.3451,0.3473,0.35,0.3537,0.3561,0.3571,0.3601,0.362,0.3647,0.3674,0.37,0.3735,0.3764,0.3792,0.3822,0.3836,0.3843,0.3844,0.3843,0.3847,0.3836,0.3829,0.3838,0.3838,0.3838,0.3838,0.3838,0.3838,0.346,0.3491,0.3507,0.355,0.3571,0.3603,0.3619,0.3642,0.3664,0.3702,0.3727,0.3746,0.3773,0.3806,0.3833,0.3841,0.3851,0.3851,0.386,0.3848,0.3848,0.3847,0.3842,0.3853,0.3853,0.3869,0.3869,0.387]}]]